一网星座-0604星 (ONEWEB-0604 )

导读 | 星芒AI

ONEWE-0604 是 OneWeb 卫星通信公司发射的低轨通信卫星之一,属于其全球宽带互联网星座计划。该卫星运行在约 1200 公里的近地轨道,旨在为全球用户提供高速、低延迟的互联网服务,特别是在航空、航海及偏远地区。作为 OneWeb 扩展其卫星网络的一部分,ONEWE-0604 有助于增强覆盖范围和系统冗余,提升整体通信能力。该卫星采用标准化设计,支持高频段通信,是实现全球数字连接战略的重要组成部分。

基本信息
目录编号:
54668
目录名称:
ONEWEB-0604
国际标识:
2022-166AC
轨道中心:
EARTH
卫星名称:
一网星座-0604星
卫星全名:
一网星座-0604星 (ONEWEB-0604 )
卫星状态:
在轨 (已飞行1103 天)
发射日期:
2022-12-08 UTC
国别 :
英国 (GB)
星等 :
--
轨道信息
数据来源 国际轨道数据 AOE轨道数据
星历时间 2025-12-15T03:46:03+0800
23小时前
查看轨道信息
2025-12-13T07:00:00+0800
2天前
查看轨道信息
半长轴 7555.9km 7555.898km
偏心率 0.0001817 0.0001673
轨道倾角 87.922° 87.922°
近地点辐角 75.170° 76.273°
升交点赤经 280.737° 281.109°
平近点角 284.964° 52.747°
近地点 1176.392km 1176.498km
远地点 1179.138km 1179.028km
周期 108.940分钟 108.940分钟
每日圈数 13.218236 13.21824
详细信息
平衡模式:
三轴稳定
覆盖范围:
全球
运营商:
一网卫星公司
运营商所在国:
英国
制造商(研发单位):
一网卫星公司
制造商所在国:
英国
使用方式:
暂无
卫星简介
OneWeb卫星网络由648颗重约125公斤的微型卫星组成,运行在1200公里的轨道上。 每颗卫星都能够提供至少每秒8千兆位的吞吐量,以使用其高吞吐量的Ku频段有效载荷为家庭和移动平台提供互联网接入。该卫星仍在工作。
2D轨道图
3D轨道图
轨道高度分析图
轨道倾角分析图
轨道综合分析图
查看轨道综合分析图